sat.trackr.live / text

‹ back to catalog

STARLINK-31990

NORAD 60024 · 2024-111J

PAYLOAD ACTIVE UNKNOWN

§ Identity

Operator
Country
US
Launch date
2024-06-08
Launch site
AFETR
Launch vehicle
Mass (kg)
RCS (m²)

Purposes: comms

External: N2YO · Heavens-Above · Gunter

§ Orbital elements

Epoch: 2026-05-24T23:24:17.901216Z

Period
94.11 min
Inclination
53.1606°
Eccentricity
0.0001219
Mean motion
15.30195650 rev/d
Perigee alt
474.4 km
Apogee alt
476.1 km
Semi-major
6,853.4 km
B*
-5.4411e-6
RAAN
81.2529°
Arg perigee
88.1519°
Mean anomaly
271.9622°
Rev number
11,071

§ Raw data

STARLINK-319901 60024U 24111J   26144.97520719 -.00000520  00000+0 -54411-5 0  99962 60024  53.1606  81.2529 0001219  88.1519 271.9622 15.30195650110711

JSON: /api/v1/satellites/60024 · /tle

For live sub-satellite position, see the globe view (requires WebGL).

§ Visibility from observer

Set your observer location to see the next 7 days of passes ≥ 10°. The values pass through the URL so the page stays shareable.

No JS? Fill the form by hand. The geolocation button needs JavaScript.